Home   Weather   Bad Nauheim   Past weeks

Flag for Germany Past Weather in Bad Nauheim, Hesse, Germany — Yesterday and Last 2 Weeks

Now
68 °F

Sunny.


Feels Like: 68 °F
Forecast: 51 / 67 °F
Wind: 8 mph from Southwest

Location: Frankfurt-M-Flughafen Airport

Current Time: Aug 19, 2017 at 7:14:55 pm

Latest Report: Aug 19, 2017 at 6:50 pm


Visibility: 10 mi

Pressure: 30.09 "Hg

Humidity: 56%

Dew Point: 52 °F

Location of Bad NauheimLocation

Past Weather in Bad Nauheim — Graph

°F

Bad Nauheim Temperature Yesterday

Maximum temperature yesterday: 79 °F (at 2:50 pm)
Minimum temperature yesterday: 61 °F (at 8:50 pm)
Average temperature yesterday: 67 °F

High & Low Weather Summary for the Past Weeks

 TemperatureHumidityPressure
High82 °F (Aug 14, 4:50 pm)100% (Aug 6, 5:50 am)30.21 "Hg (Aug 6, 5:50 am)
Low52 °F (Aug 6, 5:50 am)30% (Aug 7, 3:50 pm)29.83 "Hg (Aug 8, 6:20 am)
Average66 °F75%30.04 "Hg
* Reported Aug 4 5:20 pm — Aug 19 5:50 pm, Bad Nauheim. Weather by CustomWeather, © 2017

Note: Actual official high and low records may vary slightly from our data, if they occured in-between our weather recording intervals... More about our weather records

Advertising

Bad Nauheim Weather History for the Previous 24 Hours

Scroll right to see more
 ConditionsComfort  
Time TempWeatherWind HumidityBarometerVisibility
5:50 pm
Sat, Aug 19
70 °FPassing clouds.14 mph46%30.09 "HgN/A
5:20 pm70 °FSunny.15 mph50%30.09 "Hg10 mi
4:50 pm70 °FSunny.14 mph50%30.09 "Hg10 mi
4:20 pm68 °FPassing clouds.14 mph49%30.09 "HgN/A
3:50 pm68 °FSunny.13 mph49%30.09 "Hg10 mi
3:20 pm68 °FSunny.15 mph49%30.09 "Hg10 mi
2:50 pm68 °FSunny.13 mph53%30.09 "Hg10 mi
2:20 pm68 °FPartly sunny.13 mph49%30.09 "HgN/A
1:50 pm66 °FPartly sunny.12 mph49%30.09 "HgN/A
1:20 pm66 °FScattered clouds.17 mph52%30.09 "HgN/A
12:50 pm66 °FScattered clouds.14 mph49%30.09 "HgN/A
12:20 pm66 °FScattered clouds.16 mph52%30.09 "HgN/A
11:50 am64 °FScattered clouds.15 mph56%30.09 "HgN/A
11:20 am64 °FScattered clouds.16 mph60%30.09 "HgN/A
10:50 am63 °FPassing clouds.14 mph64%30.09 "HgN/A
10:20 am63 °FPassing clouds.16 mph64%30.09 "HgN/A
9:50 am63 °FPassing clouds.14 mph68%30.09 "HgN/A
9:20 am61 °FPassing clouds.13 mph72%30.09 "HgN/A
8:50 am61 °FPassing clouds.10 mph72%30.07 "HgN/A
8:20 am59 °FPassing clouds.12 mph77%30.07 "HgN/A
7:50 am57 °FPassing clouds.10 mph88%30.07 "HgN/A
7:20 am55 °FScattered clouds.7 mph94%30.07 "HgN/A
6:50 am55 °FScattered clouds.6 mph94%30.07 "HgN/A
6:20 am55 °FPartly sunny.6 mph94%30.04 "HgN/A
5:50 am57 °FPassing clouds.6 mph88%30.04 "HgN/A
5:20 am57 °FFog.7 mph94%30.04 "HgN/A
4:50 am57 °FFog.5 mph94%30.04 "HgN/A
4:20 am57 °FFog.5 mph94%30.04 "HgN/A
3:50 am57 °FFog.7 mph94%30.01 "HgN/A
3:20 am57 °FFog.5 mph100%30.01 "HgN/A
2:50 am59 °FFog.3 mph94%30.01 "HgN/A
2:20 am59 °FPartly cloudy.7 mph94%30.01 "HgN/A
1:50 am61 °FPartly cloudy.8 mph88%30.01 "HgN/A
1:20 am61 °FPartly cloudy.9 mph94%30.01 "HgN/A
12:50 am61 °FPassing clouds.7 mph94%30.01 "HgN/A
12:20 am61 °FPassing clouds.6 mph94%30.01 "HgN/A
11:50 pm
Fri, Aug 18
61 °FPassing clouds.7 mph94%29.98 "HgN/A
11:20 pm61 °FPassing clouds.8 mph94%29.98 "HgN/A
10:50 pm61 °FPassing clouds.8 mph94%29.98 "HgN/A
10:20 pm61 °FClear.9 mph94%29.98 "Hg10 mi
9:50 pm61 °FPassing clouds.9 mph94%29.98 "HgN/A
9:20 pm61 °FPartly cloudy.9 mph94%29.98 "HgN/A
8:50 pm61 °FPassing clouds.7 mph100%29.95 "HgN/A
8:20 pm63 °FLight rain. Scattered clouds.10 mph94%29.95 "HgN/A
7:50 pm63 °FLight rain. Broken clouds.5 mph94%29.92 "HgN/A
7:20 pm63 °FLight rain. More clouds than sun.7 mph94%29.95 "HgN/A
Weather by CustomWeather, © 2017

See weather overviewHow to use our weather pages